| time (UTC) | temp F | wind direction | speed knots | gust knots | rain 1hr in | rain 24hr in | rain mn in | humidity % | barometer mb |
| 20260906203033 | 51 | 337 | 0.0 | 0.0 | 0.00 | 0.48 | 0.37 | 97 | 1018.7 |
| 20260906201604 | 50 | 337 | 0.0 | 0.0 | 0.01 | 0.48 | 0.37 | 96 | 1018.8 |
| 20260906200108 | 50 | 337 | 0.0 | 0.9 | 0.02 | 0.48 | 0.37 | 96 | 1018.7 |
| 20260906194606 | 50 | 337 | 0.0 | 1.7 | 0.02 | 0.48 | 0.37 | 96 | 1018.6 |
| 20260906193034 | 50 | 337 | 0.9 | 2.6 | 0.02 | 0.48 | 0.36 | 96 | 1018.7 |
| 20260906191534 | 50 | 329 | 0.9 | 4.3 | 0.01 | 0.47 | 0.35 | 97 | 1018.7 |
| 20260906190033 | 50 | 277 | 1.7 | 5.2 | 0.00 | 0.46 | 0.35 | 96 | 1018.7 |
| 20260906183031 | 50 | 357 | 2.6 | 4.3 | 0.02 | 0.46 | 0.35 | 96 | 1018.6 |
| 20260906181651 | 50 | 350 | 2.6 | 6.1 | 0.02 | 0.46 | 0.35 | 96 | 1018.6 |
| 20260906180030 | 50 | 326 | 3.5 | 7.0 | 0.03 | 0.46 | 0.34 | 96 | 1018.6 |
| 20260906174530 | 50 | 294 | 1.7 | 4.3 | 0.03 | 0.45 | 0.33 | 96 | 1018.5 |
| 20260906173106 | 50 | 275 | 0.9 | 4.3 | 0.04 | 0.44 | 0.33 | 96 | 1018.4 |
| 20260906164537 | 50 | 291 | 0.9 | 5.2 | 0.04 | 0.42 | 0.28 | 96 | 1018.3 |
| 20260906163030 | 50 | 261 | 0.0 | 3.5 | 0.03 | 0.40 | 0.28 | 96 | 1018.3 |
| 20260906160034 | 50 | 225 | 0.0 | 0.0 | 0.02 | 0.38 | 0.27 | 96 | 1018.2 |
| 20260906154608 | 50 | 206 | 0.0 | 1.7 | 0.04 | 0.38 | 0.26 | 96 | 1018.1 |
| 20260906151533 | 49 | 202 | 0.0 | 0.0 | 0.05 | 0.37 | 0.25 | 95 | 1018.0 |
| 20260906150030 | 49 | 202 | 0.0 | 0.9 | 0.05 | 0.36 | 0.23 | 95 | 1017.7 |
| 20260906144536 | 49 | 167 | 0.0 | 1.7 | 0.05 | 0.34 | 0.22 | 95 | 1017.6 |
| 20260906141530 | 49 | 157 | 1.7 | 3.5 | 0.06 | 0.32 | 0.20 | 95 | 1017.3 |
| 20260906140033 | 49 | 163 | 0.9 | 2.6 | 0.06 | 0.31 | 0.18 | 95 | 1017.1 |
| 20260906134642 | 49 | 180 | 0.0 | 1.7 | 0.06 | 0.28 | 0.17 | 95 | 1017.0 |
| 20260906133035 | 49 | 162 | 2.6 | 5.2 | 0.06 | 0.28 | 0.15 | 95 | 1017.0 |
| 20260906130036 | 49 | 180 | 0.0 | 1.7 | 0.05 | 0.25 | 0.12 | 95 | 1017.0 |
| 20260906124537 | 49 | 180 | 0.0 | 0.0 | 0.04 | 0.23 | 0.11 | 95 | 1017.1 |
| 20260906123106 | 49 | 165 | 1.7 | 4.3 | 0.03 | 0.22 | 0.10 | 94 | 1017.1 |
| 20260906121529 | 49 | 149 | 2.6 | 4.3 | 0.02 | 0.21 | 0.09 | 94 | 1017.2 |
| 20260906114536 | 49 | 174 | 2.6 | 4.3 | 0.00 | 0.19 | 0.08 | 94 | 1017.3 |
| 20260906113037 | 49 | 164 | 1.7 | 3.5 | 0.00 | 0.19 | 0.08 | 94 | 1017.4 |
| 20260906111535 | 49 | 152 | 1.7 | 4.3 | 0.01 | 0.19 | 0.08 | 94 | 1017.4 |
| 20260906110107 | 49 | 140 | 2.6 | 4.3 | 0.01 | 0.19 | 0.08 | 94 | 1017.4 |
| 20260906104535 | 49 | 152 | 2.6 | 5.2 | 0.02 | 0.19 | 0.08 | 94 | 1017.6 |
| 20260906103034 | 50 | 190 | 3.5 | 6.1 | 0.03 | 0.19 | 0.07 | 94 | 1017.9 |
| 20260906100030 | 50 | 115 | 0.9 | 3.5 | 0.04 | 0.18 | 0.06 | 93 | 1018.0 |
| 20260906094605 | 50 | 165 | 1.7 | 9.6 | 0.04 | 0.17 | 0.05 | 93 | 1018.0 |
| 20260906091532 | 51 | 150 | 3.5 | 8.7 | 0.04 | 0.15 | 0.03 | 93 | 1018.1 |
| 20260906090033 | 51 | 157 | 1.7 | 6.1 | 0.03 | 0.14 | 0.02 | 93 | 1018.1 |
| 20260906084606 | 51 | 157 | 4.3 | 8.7 | 0.02 | 0.13 | 0.01 | 93 | 1018.1 |
| 20260906083104 | 50 | 158 | 3.5 | 9.6 | 0.01 | 0.12 | 0.00 | 93 | 1018.2 |
| 20260906080038 | 50 | 151 | 3.5 | 7.8 | 0.00 | 0.11 | 0.00 | 93 | 1017.9 |
| 20260906073032 | 50 | 152 | 2.6 | 6.1 | 0.00 | 0.11 | 0.00 | 93 | 1017.9 |
| 20260906071533 | 50 | 155 | 3.5 | 5.2 | 0.00 | 0.11 | 0.00 | 93 | 1018.2 |
| 20260906064531 | 49 | 153 | 3.5 | 7.8 | 0.00 | 0.11 | 0.11 | 93 | 1018.3 |
| 20260906063034 | 49 | 162 | 4.3 | 7.8 | 0.00 | 0.11 | 0.11 | 93 | 1018.3 |
| 20260906061534 | 49 | 153 | 4.3 | 7.0 | 0.00 | 0.11 | 0.11 | 93 | 1018.4 |
| 20260906060142 | 49 | 154 | 3.5 | 5.2 | 0.00 | 0.12 | 0.11 | 93 | 1018.5 |
| 20260906054532 | 49 | 176 | 4.3 | 6.1 | 0.00 | 0.13 | 0.11 | 93 | 1018.5 |
| 20260906053032 | 49 | 154 | 3.5 | 6.1 | 0.00 | 0.13 | 0.11 | 92 | 1018.6 |
| 20260906051535 | 49 | 155 | 3.5 | 5.2 | 0.00 | 0.13 | 0.11 | 92 | 1018.7 |
| 20260906050033 | 50 | 142 | 4.3 | 8.7 | 0.00 | 0.13 | 0.11 | 92 | 1018.7 |
| 20260906044538 | 50 | 138 | 3.5 | 7.0 | 0.00 | 0.13 | 0.11 | 92 | 1018.8 |
| 20260906043153 | 50 | 141 | 3.5 | 6.1 | 0.00 | 0.13 | 0.11 | 92 | 1018.9 |
| 20260906043144 | 50 | 144 | 3.5 | 7.0 | 0.00 | 0.13 | 0.11 | 92 | 1018.9 |
| 20260906040034 | 50 | 156 | 4.3 | 7.0 | 0.00 | 0.13 | 0.11 | 92 | 1018.8 |
| 20260906034533 | 50 | 176 | 3.5 | 6.1 | 0.00 | 0.13 | 0.11 | 91 | 1018.7 |
| 20260906033045 | 50 | 175 | 3.5 | 6.1 | 0.00 | 0.13 | 0.11 | 91 | 1018.6 |
| 20260906031535 | 51 | 160 | 3.5 | 5.2 | 0.00 | 0.13 | 0.11 | 90 | 1018.4 |
| 20260906024532 | 52 | 152 | 3.5 | 5.2 | 0.00 | 0.13 | 0.11 | 90 | 1018.3 |
| 20260906023035 | 53 | 150 | 2.6 | 4.3 | 0.00 | 0.13 | 0.11 | 89 | 1018.4 |
| 20260906020034 | 54 | 157 | 0.0 | 0.9 | 0.00 | 0.13 | 0.11 | 87 | 1018.4 |
| 20260906014534 | 54 | 157 | 0.0 | 0.9 | 0.00 | 0.13 | 0.11 | 86 | 1018.4 |
| 20260906013030 | 55 | 157 | 0.0 | 0.9 | 0.00 | 0.13 | 0.11 | 84 | 1018.4 |
| 20260906011643 | 56 | 188 | 0.0 | 2.6 | 0.00 | 0.13 | 0.11 | 84 | 1018.6 |
| 20260906010034 | 56 | 202 | 0.0 | 0.9 | 0.00 | 0.13 | 0.11 | 84 | 1018.8 |
| 20260906004529 | 57 | 202 | 0.0 | 0.9 | 0.00 | 0.13 | 0.11 | 84 | 1018.8 |
| 20260906003106 | 58 | 238 | 1.7 | 4.3 | 0.00 | 0.13 | 0.11 | 84 | 1018.8 |
| 20260906001531 | 58 | 217 | 2.6 | 6.1 | 0.07 | 0.13 | 0.11 | 85 | 1018.8 |
| 20260906000036 | 57 | 171 | 0.9 | 3.5 | 0.11 | 0.13 | 0.11 | 86 | 1018.8 |
| 20260905231535 | 59 | 270 | 0.0 | 2.6 | 0.04 | 0.06 | 0.00 | 79 | 1019.0 |
| 20260905224535 | 62 | 276 | 2.6 | 6.1 | 0.00 | 0.02 | 0.00 | 78 | 1018.7 |
| 20260905221606 | 59 | 200 | 1.7 | 4.3 | 0.00 | 0.02 | 0.00 | 79 | 1018.9 |
| 20260905220032 | 60 | 241 | 1.7 | 4.3 | 0.00 | 0.02 | 0.00 | 79 | 1018.7 |
| 20260905213033 | 60 | 304 | 1.7 | 6.1 | 0.00 | 0.02 | 0.00 | 80 | 1018.7 |
| 20260905211534 | 59 | 279 | 0.9 | 3.5 | 0.00 | 0.02 | 0.00 | 81 | 1018.9 |